Onweer radar Meer informatie blitzortung!


Regen radar Meer informatie rain snow radar


Bezoek onze andere website:

Template documentation
and downloads

And another site



15 daagse weersverwachting Pori (FI)

  • Overzicht
  • Per uur
  • 15 dagen
  • Extra
  • Vergelijk
  • Kaarten
  • Dagkaart
  • Meer »
  • Info
  • Statistieken
  • Directe link
    Temp 6h Neerslag Wind  
 05:07     22:13    Daglengte: 17:06 Vandaag
03:00
14°
 
2
09:00
17°
0.9 mm
3
15:00
19°
3.7 mm
2
21:00
17°
5.4 mm
2
 05:10     22:10    Daglengte: 17:00 Morgen
03:00
14°
0.9 mm
1
09:00
14°
 
2
15:00
17°
4.1 mm
3
21:00
15°
4.7 mm
4
 05:12     22:07    Daglengte: 16:55 Dinsdag 03 Aug
03:00
12°
4.2 mm
3
09:00
13°
 
4
15:00
16°
3.9 mm
6
21:00
15°
 
3
Locatie info
Region: Satakunta
Latitude: 61.4860°N
Longitude: 21.7954°E
19 masl
Postcode: 28100
Temp/Neerslag /Baro Onweer/Dauwpunt
    Temp Baro 1h Neerslag Dauwpunt Wind UV Bewolking  
 05:07     22:13    Daglengte: 17:06 Vandaag
01:00
14°
998.0 hPa   14.2°
1
Windvlaag: 1.9 m/s
46%
02:00
14°
997.7 hPa   13.9°
1
Windvlaag: 1.5 m/s
33%
03:00
14°
997.3 hPa
11%
14.0°
2
Windvlaag: 2.3 m/s
64%
04:00
14°
996.9 hPa
12%
14.1°
2
Windvlaag: 4.2 m/s
65%
05:00
14°
996.5 hPa
13%
14.5°
2
Windvlaag: 3.7 m/s
84%
06:00
15°
996.3 hPa
14%
14.7°
2
Windvlaag: 2.2 m/s
79%
07:00
15°
995.9 hPa 0.3 mm
77%
15.2°
2
Windvlaag: 3.2 m/s
79%
08:00
16°
995.5 hPa
82%
15.6°
3
Windvlaag: 4.6 m/s
85%
09:00
17°
995.2 hPa 0.6 mm
82%
15.8°
3
Windvlaag: 5.2 m/s
64%
10:00
17°
995.0 hPa 0.5 mm
82%
16.0°
2
Windvlaag: 3.7 m/s
70%
11:00
17°
994.8 hPa 0.4 mm
80%
16.4°
2
Windvlaag: 3.5 m/s
67%
12:00
18°
994.6 hPa 0.3 mm
82%
17.0°
2
Windvlaag: 3.6 m/s
50%
13:00
19°
994.7 hPa 0.6 mm
82%
17.9°
1
Windvlaag: 4.2 m/s
73%
14:00
19°
995.0 hPa 1.0 mm
82%
17.4°
2
Windvlaag: 4 m/s
48% warningclass
15:00
19°
995.4 hPa 0.8 mm
82%
17.5°
2
Windvlaag: 2.5 m/s
58%
16:00
19°
995.7 hPa 0.8 mm
82%
17.1°
3
Windvlaag: 3.2 m/s
63%
17:00
18°
996.1 hPa 1.3 mm
82%
16.2°
3
Windvlaag: 2.5 m/s
81%
18:00
18°
996.5 hPa 1.1 mm
82%
15.2°
3
Windvlaag: 1.8 m/s
58%
19:00
18°
996.9 hPa 0.7 mm
82%
13.7°
3
Windvlaag: 1.8 m/s
46%
20:00
18°
997.0 hPa 0.6 mm
82%
14.2°
3
Windvlaag: 2 m/s
21%
21:00
17°
997.6 hPa 0.8 mm
82%
14.7°
2
Windvlaag: 2.8 m/s
42%
22:00
16°
998.2 hPa 0.9 mm
77%
15.4°
2
Windvlaag: 3.1 m/s
58%
23:00
15°
998.5 hPa
68%
15.1°
1
Windvlaag: 2.7 m/s
63%
 05:10     22:10    Daglengte: 17:00 Morgen
00:00
15°
998.7 hPa
18%
15.0°
1
Windvlaag: 1.9 m/s
49%
01:00
15°
998.9 hPa
17%
14.9°
1
Windvlaag: 1.9 m/s
22%
02:00
15°
999.0 hPa
17%
14.8°
1
Windvlaag: -0.9 m/s
54%
03:00
14°
999.1 hPa
20%
14.3°
1
Windvlaag: -1.8 m/s
21%
04:00
14°
999.4 hPa
26%
13.7°
1
Windvlaag: -2.1 m/s
24%
05:00
14°
999.4 hPa
24%
13.5°
1
Windvlaag: -2 m/s
59%
06:00
14°
999.4 hPa
14%
13.4°
1
Windvlaag: -2.6 m/s
60%
07:00
14°
999.5 hPa
52%
13.6°
1
Windvlaag: -2.3 m/s
70%
08:00
14°
999.6 hPa
15%
13.6°
2
Windvlaag: -2.9 m/s
76%
09:00
14°
999.7 hPa
36%
13.3°
2
Windvlaag: -2.9 m/s
84%
10:00
15°
999.8 hPa 0.6 mm
82%
12.8°
2
Windvlaag: -3.1 m/s
85%
11:00
15°
999.9 hPa 0.8 mm
82%
10.8°
2
Windvlaag: -3.4 m/s
84%
12:00
15°
1000.0 hPa
82%
9.7°
2
Windvlaag: -3.5 m/s
85%
13:00
16°
1000.1 hPa 0.8 mm
82%
9.3°
2
Windvlaag: -3.2 m/s
85%
14:00
16°
1000.1 hPa 0.7 mm
82%
9.3°
2
Windvlaag: -3.1 m/s
86%
15:00
17°
1000.0 hPa 1.1 mm
82%
9.6°
3
Windvlaag: -3.1 m/s
85%
16:00
17°
1000.0 hPa 0.5 mm
82%
9.7°
2
Windvlaag: -2.8 m/s
74%
17:00
17°
999.9 hPa
82%
9.3°
2
Windvlaag: -2.2 m/s
52%
18:00
17°
998.4 hPa 1.0 mm
100%
9.8°
2
Windvlaag: -2 m/s
84%
19:00
16°
998.4 hPa 1.2 mm
100%
9.5°
2
Windvlaag: -2 m/s
80% warningclass
20:00
16°
998.2 hPa 1.2 mm
100%
10.2°
3
Windvlaag: -2.2 m/s
76%
21:00
15°
998.5 hPa 0.7 mm
97%
10.7°
4
Windvlaag: -4.9 m/s
71%
22:00
14°
998.6 hPa 0.8 mm
92%
11.4°
4
Windvlaag: -5.2 m/s
69%
23:00
13°
998.9 hPa 0.9 mm
35%
12.2°
4
Windvlaag: -5.1 m/s
74%
 05:12     22:07    Daglengte: 16:55 Dinsdag 03 Aug
00:00
13°
999.0 hPa 1.0 mm
47%
12.5°
3
Windvlaag: -4.5 m/s
87%
01:00
13°
999.2 hPa 0.8 mm
41%
12.0°
3
Windvlaag: -4.2 m/s
92%
02:00
12°
999.4 hPa 0.7 mm
93%
11.0°
3
Windvlaag: -3.8 m/s
95%
03:00
12°
999.7 hPa
51%
10.4°
3
Windvlaag: -3.2 m/s
97%
04:00
12°
1000.1 hPa
40%
9.7°
3
Windvlaag: -3.1 m/s
97%
05:00
11°
1000.5 hPa
88%
8.7°
4
Windvlaag: -2.5 m/s
94%
06:00
11°
1000.8 hPa
95%
8.9°
4
Windvlaag: -1.4 m/s
87%
07:00
11°
1001.1 hPa
92%
9.2°
4
Windvlaag: -0.9 m/s
79%
08:00
12°
1001.6 hPa
80%
10.0°
4
Windvlaag: -1 m/s
82%
09:00
13°
1002.1 hPa
25%
10.4°
4
Windvlaag: -1.6 m/s
82%
10:00
14°
1002.6 hPa
73%
10.9°
4
Windvlaag: -0.8 m/s
68%
11:00
15°
1003.2 hPa
24%
12.5°
5
Windvlaag: -1.6 m/s
16%
12:00
16°
1003.6 hPa
22%
13.6°
5
Windvlaag: -2 m/s
37%
13:00
16°
1004.0 hPa 1.3 mm
23%
13.1°
5
Windvlaag: -1.7 m/s
48%
14:00
16°
1004.6 hPa 1.3 mm
23%
13.1°
5
Windvlaag: -2.5 m/s
40%
15:00
16°
1005.1 hPa 1.3 mm
23%
11.6°
6
Windvlaag: -3.6 m/s
34%
16:00
16°
1005.0 hPa
26%
10.5°
6
Windvlaag: 10.8 m/s
36%
17:00
16°
1005.6 hPa
31%
9.1°
5
Windvlaag: 12.9 m/s
23%
18:00
16°
1006.2 hPa
33%
7.8°
4
Windvlaag: 12.6 m/s
72%
19:00
16°
1006.5 hPa
24%
8.4°
3
Windvlaag: 8.8 m/s
64%
20:00
16°
1006.9 hPa
22%
8.7°
3
Windvlaag: 8.2 m/s
65%
21:00
15°
1007.4 hPa
21%
7.1°
3
Windvlaag: 8.8 m/s
14%
22:00
15°
1004.4 hPa 3.6 mm
100%
8.8°
4
Windvlaag: 7.6 m/s
84%
23:00
15°
1004.7 hPa 3.6 mm
100%
9.1°
4
Windvlaag: 7.9 m/s
63%
 05:15     22:05    Daglengte: 16:50 Woensdag 04 Aug
00:00
15°
1005.2 hPa 3.6 mm
100%
9.6°
4
Windvlaag: 8.1 m/s
69%
Temp/Neerslag /Baro Onweer/Dauwpunt
    Temp Baro Neerslag Dauwpunt Wind Bewolking  
 05:07     22:13    Daglengte: 17:06 Vandaag
03:00
14°
997.3 hPa   14.0°
2
64%
06:00
15°
996.3 hPa   14.7°
2
79%
09:00
17°
995.2 hPa 0.9 mm 15.8°
3
64%
12:00
18°
994.6 hPa 1.2 mm 17.0°
2
50%
15:00
19°
995.4 hPa 2.5 mm 17.5°
2
58%
18:00
18°
996.5 hPa 3.3 mm 15.2°
3
58%
21:00
17°
997.6 hPa 2.1 mm 14.7°
2
42%
 05:10     22:10    Daglengte: 17:00 Morgen
00:00
15°
998.7 hPa 0.9 mm 15.0°
1
49%
03:00
14°
999.1 hPa   14.3°
1
21%
06:00
14°
999.4 hPa   13.4°
1
60%
09:00
14°
999.7 hPa   13.3°
2
84%
12:00
15°
1000.0 hPa 1.4 mm 9.7°
2
85%
15:00
17°
1000.0 hPa 2.7 mm 9.6°
3
85%
18:00
17°
998.4 hPa 1.5 mm 9.8°
2
84%
21:00
15°
998.5 hPa 3.2 mm 10.7°
4
71%
 05:12     22:07    Daglengte: 16:55 Dinsdag 03 Aug
00:00
13°
999.0 hPa 2.7 mm 12.5°
3
87%
03:00
12°
999.7 hPa 1.6 mm 10.4°
3
97%
06:00
11°
1000.8 hPa   8.9°
4
87%
09:00
13°
1002.1 hPa   10.4°
4
82%
12:00
16°
1003.6 hPa   13.6°
5
37%
15:00
16°
1005.1 hPa 3.9 mm 11.6°
6
34%
18:00
16°
1006.2 hPa   7.8°
4
72%
21:00
15°
1007.4 hPa   7.1°
3
14%
 05:15     22:05    Daglengte: 16:50 Woensdag 04 Aug
00:00
15°
1005.2 hPa 10.8 mm 9.6°
4
69%
03:00
14°
1006.4 hPa 10.8 mm 10.4°
4
53%
06:00
11°
1012.0 hPa 9.1 mm 6.2°
2
0%
09:00
17°
1012.6 hPa 9.1 mm 6.6°
2
0%
12:00
19°
1013.1 hPa 9.1 mm 6.4°
3
0%
15:00
19°
1013.8 hPa 9.1 mm 6.7°
4
0%
18:00
18°
1014.1 hPa 9.1 mm 6.2°
4
0%
21:00
14°
1014.6 hPa 9.1 mm 6.4°
2
0%
 05:17     22:02    Daglengte: 16:45 Donderdag 05 Aug
00:00
12°
1015.4 hPa 9.1 mm 4.7°
2
0%
03:00
11°
1015.5 hPa 9.1 mm 4.9°
1
0%
06:00
10°
Voelt als: 8.9°
1015.9 hPa 9.1 mm 5.5°
2
0%
09:00
16°
1016.3 hPa 9.1 mm 7.4°
2
0%
12:00
20°
1016.3 hPa 9.1 mm 8.6°
3
0%
15:00
20°
1016.0 hPa 9.1 mm 8.8°
3
0%
18:00
20°
1015.4 hPa 9.1 mm 9.0°
3
0%
21:00
16°
1015.2 hPa 9.1 mm 9.9°
2
0%
 05:20     21:59    Daglengte: 16:39 Vrijdag 06 Aug
00:00
13°
1015.4 hPa 9.1 mm 8.0°
2
0%
03:00
12°
1015.0 hPa 9.1 mm 8.1°
3
0%
06:00
11°
1014.9 hPa 9.1 mm 6.0°
3
1%
09:00
17°
1013.8 hPa 9.1 mm 6.4°
4
1%
12:00
22°
1012.6 hPa 9.1 mm 7.9°
5
0%
15:00
24°
1010.8 hPa 9.1 mm 6.9°
5
0%
18:00
24°
1009.7 hPa 9.1 mm 8.3°
4
1%
21:00
19°
1009.5 hPa 9.1 mm 10.2°
3
1%
 05:23     21:56    Daglengte: 16:33 Zaterdag 07 Aug
00:00
16°
1009.3 hPa 9.1 mm 9.7°
4
1%
03:00
16°
1008.6 hPa 9.1 mm 9.6°
4
1%
06:00
16°
1008.1 hPa 9.1 mm 10.2°
4
1%
09:00
16°
1008.1 hPa 9.2 mm 10.9°
4
1%
12:00
19°
1007.9 hPa 9.3 mm 12.2°
4
1%
15:00
19°
1008.2 hPa 9.3 mm 12.9°
2
1%
18:00
18°
1009.3 hPa 9.4 mm 12.8°
4
1%
21:00
17°
1009.5 hPa 9.4 mm 12.9°
3
1%
 05:25     21:53    Daglengte: 16:28 Zondag 08 Aug
00:00
14°
1010.0 hPa   13.0°
2
1%
03:00
15°
1010.0 hPa 18.9 mm 13.6°
2
1%
09:00
17°
1009.5 hPa 18.9 mm 14.6°
4
1%
15:00
20°
1010.1 hPa 24.4 mm 16.5°
3
1%
21:00
18°
1010.4 hPa 34.6 mm 15.7°
3
1%
 05:28     21:50    Daglengte: 16:22 Maandag 09 Aug
03:00
15°
1012.0 hPa 35.4 mm 14.8°
3
1%
09:00
19°
1013.5 hPa 35.6 mm 16.9°
3
0%
15:00
23°
1014.1 hPa 36.0 mm 14.1°
4
1%
21:00
19°
1015.6 hPa 36.4 mm 15.8°
5
1%
 05:30     21:47    Daglengte: 16:17 Dinsdag 10 Aug
03:00
17°
1016.3 hPa 36.4 mm 16.4°
3
1%
09:00
19°
1015.3 hPa 36.5 mm 14.7°
3
1%
15:00
21°
1015.1 hPa 36.9 mm 16.9°
3
1%
21:00
17°
1013.2 hPa 0.9 mm 13.4°
1
76%
 05:33     21:44    Daglengte: 16:11 Woensdag 11 Aug
03:00
15°
1013.6 hPa 0.3 mm 12.4°
1
66%
09:00
17°
1013.7 hPa 0.3 mm 13.0°
1
64%
15:00
20°
1013.7 hPa 1.1 mm 13.6°
1
61%
21:00
17°
1013.5 hPa 0.7 mm 13.1°
1
58%
 05:36     21:41    Daglengte: 16:05 Donderdag 12 Aug
03:00
15°
1013.7 hPa 0.3 mm 12.3°
1
58%
09:00
16°
1013.8 hPa 0.5 mm 12.9°
1
60%
15:00
20°
1014.1 hPa 0.7 mm 13.5°
1
67%
21:00
17°
1014.3 hPa 0.9 mm 13.2°
1
61%
 05:38     21:38    Daglengte: 16:00 Vrijdag 13 Aug
03:00
15°
1014.6 hPa 0.5 mm 11.9°
1
60%
09:00
16°
1015.1 hPa 0.3 mm 12.6°
1
63%
15:00
20°
1015.2 hPa 0.7 mm 13.4°
2
57%
21:00
17°
1014.9 hPa 0.6 mm 12.8°
1
50%
 05:41     21:35    Daglengte: 15:54 Zaterdag 14 Aug
03:00
14°
1015.0 hPa 0.2 mm 11.8°
1
50%
09:00
16°
1014.5 hPa 0.4 mm 11.9°
1
53%
15:00
20°
1014.0 hPa 0.5 mm 12.1°
2
57%
21:00
17°
1013.1 hPa 0.5 mm 11.9°
1
54%
 05:44     21:32    Daglengte: 15:48 Zondag 15 Aug
03:00
14°
1012.6 hPa 0.2 mm 11.0°
0
51%
09:00
16°
1012.1 hPa 0.1 mm 11.4°
1
48%
15:00
20°
1011.7 hPa 0.3 mm 11.4°
1
50%
21:00
17°
1011.1 hPa 0.6 mm 11.6°
1
50%
  CAPE Lifted Index Hail Supercell Tornado SRH 3km CL BTM PRES CL TOP PRES Swiss DWD icon SMHI TS
 05:07     22:13    Daglengte: 17:06 Vandaag
01:00 0 J/kg -1.5 K 0 % 0 % 0 % 0 m²/s² 0 0 -0.12 3
02:00 78 J/kg -2.8 K 0 % 0 % 0 % 0 m²/s² 0 0 -2.5 3
03:00 447 J/kg -2.8 K 0 % 0 % 0 % 0 m²/s² 0 0 -2.71 3
04:00 659 J/kg -2.4 K 0 % 0 % 0 % 0 m²/s² 0 0 -2.16 3
05:00 583 J/kg -2.2 K 0 % 0 % 0 % 0 m²/s² 0 0 -1.99 3
06:00 386 J/kg -1.8 K 0 % 0 % 0 % 0 m²/s² 0 0 -1.59 3
07:00 361 J/kg -2.3 K 0 % 0 % 0 % 0 m²/s² 0 0 -1.7 80
08:00 563 J/kg -2.1 K 0 % 0 % 0 % 0 m²/s² 0 0 -1.26 80
09:00 434 J/kg -1.6 K 0 % 0 % 0 % 0 m²/s² 0 0 -1.18 80
10:00 150 J/kg -0.7 K 0 % 0 % 0 % 0 m²/s² 0 0 -0.49 80
11:00 276 J/kg -1.2 K 0 % 0 % 0 % 0 m²/s² 0 0 -0.33 3
12:00 415 J/kg -1.6 K 0 % 0 % 0 % 0 m²/s² 0 0 -1 3
13:00 9 J/kg -0.4 K 0 % 0 % 0 % 0 m²/s² 0 0 0.74 3
14:00 28 J/kg 0.0 K 0 % 0 % 0 % 0 m²/s² 0 0 1.41 95
15:00 78 J/kg -0.2 K 0 % 0 % 0 % 0 m²/s² 0 0 0.94 80
16:00 1 J/kg 0.6 K 0 % 0 % 0 % 0 m²/s² 0 0 2.1 80
17:00 33 J/kg 0.4 K 0 % 0 % 0 % 0 m²/s² 0 0 1.81 3
18:00 148 J/kg -0.1 K 0 % 0 % 0 % 0 m²/s² 0 0 0.77 3
19:00 318 J/kg -0.6 K 0 % 0 % 0 % 0 m²/s² 0 0 0.18 80
20:00 319 J/kg -0.7 K 0 % 0 % 0 % 0 m²/s² 0 0 0.32 3
21:00 297 J/kg -0.7 K 0 % 0 % 0 % 0 m²/s² 0 0 0.47 80
22:00 297 J/kg -0.8 K 0 % 0 % 0 % 0 m²/s² 0 0 0.64 80
23:00 222 J/kg -0.7 K 0 % 0 % 0 % 0 m²/s² 0 0 0.8 3
 05:10     22:10    Daglengte: 17:00 Morgen
00:00 155 J/kg -0.7 K 0 % 0 % 0 % 0 m²/s² 0 0 0.65 3
01:00 77 J/kg -0.1 K 0 % 0 % 0 % 0 m²/s² 0 0 0.98 2
02:00 83 J/kg 0.4 K 0 % 0 % 0 % 0 m²/s² 0 0 1.24 2
03:00 35 J/kg 1.1 K 0 % 0 % 0 % 0 m²/s² 0 0 2.54 2
04:00 14 J/kg 1.8 K 0 % 0 % 0 % 0 m²/s² 0 0 5.04 45
05:00 0 J/kg 2.3 K 0 % 0 % 0 % 0 m²/s² 0 0 6.08 45
06:00 0 J/kg 2.4 K 0 % 0 % 0 % 0 m²/s² 0 0 5.82 45
07:00 5 J/kg 2.2 K 0 % 0 % 0 % 0 m²/s² 0 0 4.03 45
08:00 48 J/kg 1.8 K 0 % 0 % 0 % 0 m²/s² 0 0 4.17 3
09:00 83 J/kg 1.3 K 0 % 0 % 0 % 0 m²/s² 0 0 4.36 3
10:00 124 J/kg 0.9 K 0 % 0 % 0 % 0 m²/s² 0 0 4.8 80
11:00 249 J/kg 0.1 K 0 % 0 % 0 % 0 m²/s² 0 0 4.3 80
12:00 240 J/kg 0.2 K 0 % 0 % 0 % 0 m²/s² 0 0 4.52 3
13:00 203 J/kg 0.3 K 0 % 0 % 0 % 0 m²/s² 0 0 3.81 80
14:00 170 J/kg 0.6 K 0 % 0 % 0 % 0 m²/s² 0 0 4.71 3
15:00 123 J/kg 0.6 K 0 % 0 % 0 % 0 m²/s² 0 0 4.92 80
16:00 102 J/kg 0.7 K 0 % 0 % 0 % 0 m²/s² 0 0 4.81 3
17:00 75 J/kg 1.0 K 0 % 0 % 0 % 0 m²/s² 0 0 5.2 80
18:00 39 J/kg 1.6 K 0 % 0 % 0 % 0 m²/s² 0 0 5.71 80
19:00 24 J/kg 1.8 K 0 % 0 % 0 % 0 m²/s² 0 0 5.79 95
20:00 37 J/kg 1.1 K 0 % 0 % 0 % 0 m²/s² 0 0 5 80
21:00 54 J/kg 1.2 K 0 % 0 % 0 % 0 m²/s² 0 0 4.71 3
22:00 139 J/kg 0.6 K 0 % 0 % 0 % 0 m²/s² 0 0 3.6 3
23:00 288 J/kg -0.6 K 0 % 0 % 0 % 0 m²/s² 0 0 2.22 3
 05:12     22:07    Daglengte: 16:55 Dinsdag 03 Aug
00:00 82 J/kg 0.5 K 0 % 0 % 0 % 0 m²/s² 0 0 3.17 3
01:00 0 J/kg 0.6 K 0 % 0 % 0 % 0 m²/s² 0 0 3.33 3
02:00 0 J/kg 0.9 K 0 % 0 % 0 % 0 m²/s² 0 0 3.63 61
03:00 0 J/kg 0.9 K 0 % 0 % 0 % 0 m²/s² 0 0 3.63 3
04:00 0 J/kg 0.7 K 0 % 0 % 0 % 0 m²/s² 0 0 3.52 3
05:00 0 J/kg 0.5 K 0 % 0 % 0 % 0 m²/s² 0 0 3.38 3
06:00 0 J/kg 0.9 K 0 % 0 % 0 % 0 m²/s² 0 0 3.96 3
07:00 1 J/kg 1.2 K 0 % 0 % 0 % 0 m²/s² 0 0 4.26 3
08:00 1 J/kg 1.5 K 0 % 0 % 0 % 0 m²/s² 0 0 4.47 3
09:00 1 J/kg 1.2 K 0 % 0 % 0 % 0 m²/s² 0 0 4.17 3
10:00 4 J/kg 1.7 K 0 % 0 % 0 % 0 m²/s² 0 0 4.58 3
11:00 1 J/kg 1.7 K 0 % 0 % 0 % 0 m²/s² 0 0 2.96 2
12:00 0 J/kg 1.8 K 0 % 0 % 0 % 0 m²/s² 0 0 2.19 2
13:00 4 J/kg 3.0 K 0 % 0 % 0 % 0 m²/s² 0 0 3.6 1
14:00 6 J/kg 4.6 K 0 % 0 % 0 % 0 m²/s² 0 0 5.05 2
15:00 37 J/kg 4.6 K 0 % 0 % 0 % 0 m²/s² 0 0 4.9 1
16:00 27 J/kg 5.3 K 0 % 0 % 0 % 0 m²/s² 0 0 5.69 2
17:00 14 J/kg 6.0 K 0 % 0 % 0 % 0 m²/s² 0 0 6.42 2
18:00 2 J/kg 6.4 K 0 % 0 % 0 % 0 m²/s² 0 0 7.42 3
19:00 33 J/kg 5.0 K 0 % 0 % 0 % 0 m²/s² 0 0 7.28 3
20:00 88 J/kg 3.7 K 0 % 0 % 0 % 0 m²/s² 0 0 7.15 3
21:00 50 J/kg 4.2 K 0 % 0 % 0 % 0 m²/s² 0 0 8.4 2
22:00 104 J/kg 3.0 K 0 % 0 % 0 % 0 m²/s² 0 0 7.53
23:00 128 J/kg 2.8 K 0 % 0 % 0 % 0 m²/s² 0 0 6.1
 05:15     22:05    Daglengte: 16:50 Woensdag 04 Aug
00:00 174 J/kg 2.2 K 0 % 0 % 0 % 0 m²/s² 0 0 4.78
Temp Baro Wind Neerslag
  EWN Forecast EWN WRFDA DWD ICON FMI HIRLAM MET Norway GFS
 05:07     22:13    Daglengte: 17:06 Vandaag
03:00 14.2° 997.3 hPa 1.7 m/s 0.0 mm 14.7° 996.7 hPa 2.1 m/s 0.0 mm 14.3° 996.5 hPa 2.2 m/s -2.0 mm 12.7° 997.5 hPa 1.2 m/s 0.0 mm 14.1° 997.2 hPa 2.2 m/s
06:00 14.8° 996.3 hPa 2.0 m/s 0.0 mm 15.0° 995.7 hPa 2.2 m/s 0.4 mm 15.1° 995.5 hPa 2.5 m/s 0.0 mm 12.9° 996.6 hPa 1.2 m/s 0.0 mm 13.6° 995.8 hPa 2.6 m/s
09:00 16.5° 995.2 hPa 2.6 m/s 0.9 mm 17.0° 995.3 hPa 4.2 m/s 1.5 mm 17.0° 994.1 hPa 2.7 m/s 1.4 mm 16.2° 995.2 hPa 1.4 m/s 0.0 mm 15.7° 995.2 hPa 2.4 m/s
12:00 18.3° 994.6 hPa 1.6 m/s 1.2 mm 19.1° 995.1 hPa 2.4 m/s 2.5 mm 18.8° 993.7 hPa 1.9 m/s 1.0 mm 18.0° 994.6 hPa 1.1 m/s 0.0 mm 19.2° 995.5 hPa 1.6 m/s
15:00 18.8° 995.4 hPa 2.2 m/s 2.5 mm 19.3° 995.6 hPa 3.2 m/s 4.6 mm 18.8° 994.7 hPa 2.1 m/s 2.1 mm 18.1° 995.4 hPa 2.0 m/s 0.0 mm 20.2° 996.0 hPa 3.0 m/s
18:00 17.9° 996.5 hPa 2.7 m/s 3.3 mm 18.7° 996.7 hPa 3.4 m/s 4.7 mm 18.6° 995.6 hPa 2.6 m/s 1.0 mm 17.9° 996.6 hPa 2.6 m/s 0.0 mm 19.4° 997.3 hPa 3.3 m/s
21:00 16.9° 997.6 hPa 2.3 m/s 2.1 mm 16.8° 997.2 hPa 2.4 m/s 4.7 mm 17.1° 996.9 hPa 2.5 m/s 1.2 mm 17.0° 997.8 hPa 1.4 m/s 0.0 mm 16.8° 998.0 hPa 1.8 m/s
 05:10     22:10    Daglengte: 17:00 Morgen
00:00 15.2° 998.7 hPa 1.3 m/s 0.9 mm 14.9° 998.1 hPa 2.0 m/s 4.8 mm 16.1° 998.2 hPa 1.1 m/s 0.5 mm 13.9° 999.7 hPa 1.2 m/s 0.0 mm 14.0° 998.7 hPa 0.2 m/s
03:00 14.4° 999.1 hPa 1.5 m/s 0.0 mm 13.1° 998.4 hPa 0.7 m/s 4.8 mm 14.6° 998.9 hPa 0.4 m/s 0.0 mm 13.8° 1000.4 hPa 1.7 m/s 0.0 mm 12.8° 998.7 hPa 1.2 m/s
06:00 13.5° 999.4 hPa 1.3 m/s 0.0 mm 12.7° 998.6 hPa 1.4 m/s 4.8 mm 13.9° 999.2 hPa 1.0 m/s 0.0 mm 11.4° 1001.2 hPa 1.1 m/s 0.0 mm 13.0° 998.9 hPa 1.7 m/s
09:00 14.3° 999.7 hPa 1.6 m/s 0.0 mm 14.7° 999.2 hPa 1.4 m/s 5.2 mm 16.4° 999.3 hPa 1.5 m/s 0.0 mm 12.7° 1001.7 hPa 1.4 m/s 0.0 mm 16.9° 999.0 hPa 2.0 m/s
12:00 15.3° 1000.0 hPa 2.3 m/s 1.4 mm 19.0° 998.8 hPa 1.6 m/s 5.5 mm 17.9° 998.9 hPa 2.1 m/s 1.0 mm 14.5° 1001.6 hPa 2.4 m/s 0.0 mm 19.9° 998.7 hPa 2.3 m/s
15:00 16.6° 1000.0 hPa 2.8 m/s 2.7 mm 19.4° 998.0 hPa 2.6 m/s 5.6 mm 18.3° 998.1 hPa 2.6 m/s 2.2 mm 16.6° 1000.8 hPa 2.8 m/s 0.0 mm 19.7° 998.5 hPa 3.1 m/s
18:00 17.1° 998.4 hPa 1.7 m/s 1.5 mm 19.2° 997.9 hPa 3.0 m/s 5.8 mm 17.6° 998.0 hPa 1.1 m/s 1.2 mm 18.7° 998.3 hPa 2.4 m/s
21:00 15.0° 998.5 hPa 3.7 m/s 3.2 mm 17.3° 997.1 hPa 1.9 m/s 5.8 mm 15.0° 998.0 hPa 4.5 m/s 1.8 mm 13.7° 999.5 hPa 4.8 m/s
 05:12     22:07    Daglengte: 16:55 Dinsdag 03 Aug
00:00 13.1° 999.0 hPa 3.5 m/s 2.7 mm 14.4° 996.6 hPa 2.7 m/s 5.8 mm 13.2° 998.6 hPa 4.7 m/s 0.0 mm 12.0° 1000.8 hPa 5.0 m/s
03:00 11.9° 999.7 hPa 3.3 m/s 1.6 mm 12.0° 996.3 hPa 2.3 m/s 5.8 mm 12.0° 999.6 hPa 5.0 m/s 0.1 mm 12.1° 1002.4 hPa 4.7 m/s
06:00 11.3° 1000.8 hPa 3.9 m/s 0.0 mm 12.6° 996.0 hPa 4.5 m/s 5.8 mm 11.0° 1000.8 hPa 4.3 m/s 0.1 mm 12.8° 1003.1 hPa 3.0 m/s
09:00 13.0° 1002.1 hPa 3.6 m/s 0.0 mm 12.8° 996.6 hPa 5.4 m/s 6.0 mm 13.3° 1002.3 hPa 3.7 m/s 0.0 mm 16.3° 1003.9 hPa 1.9 m/s
12:00 16.1° 1003.6 hPa 4.7 m/s 0.0 mm 13.0° 998.3 hPa 6.5 m/s 7.7 mm 16.5° 1003.8 hPa 5.1 m/s 0.0 mm 18.4° 1005.4 hPa 4.2 m/s
15:00 16.0° 1005.1 hPa 5.6 m/s 3.9 mm 14.2° 1000.7 hPa 7.1 m/s 10.6 mm 17.1° 1005.2 hPa 5.7 m/s 0.0 mm 17.9° 1006.7 hPa 5.0 m/s
18:00 16.0° 1006.2 hPa 4.3 m/s 0.0 mm 14.8° 1002.8 hPa 5.7 m/s 10.8 mm 16.2° 1007.0 hPa 4.0 m/s 0.0 mm 16.9° 1008.0 hPa 4.0 m/s
21:00 15.0° 1007.4 hPa 3.0 m/s 0.0 mm 15.6° 1003.9 hPa 4.7 m/s 10.8 mm 14.8° 1008.2 hPa 2.5 m/s 0.0 mm 14.6° 1009.3 hPa 2.6 m/s
 05:15     22:05    Daglengte: 16:50 Woensdag 04 Aug
00:00 15.0° 1005.2 hPa 4.3 m/s 10.8 mm 15.0° 1005.2 hPa 4.3 m/s 10.8 mm 12.0° 1010.5 hPa 1.9 m/s
03:00 14.5° 1006.4 hPa 3.9 m/s 10.8 mm 14.5° 1006.4 hPa 3.9 m/s 10.8 mm 11.4° 1011.3 hPa 0.9 m/s
06:00 11.2° 1012.0 hPa 1.6 m/s 9.1 mm 11.2° 1012.0 hPa 1.6 m/s 9.1 mm
09:00 16.5° 1012.6 hPa 2.2 m/s 9.1 mm 16.5° 1012.6 hPa 2.2 m/s 9.1 mm
12:00 18.6° 1013.1 hPa 3.3 m/s 9.1 mm 18.6° 1013.1 hPa 3.3 m/s 9.1 mm
15:00 19.0° 1013.8 hPa 3.8 m/s 9.1 mm 19.0° 1013.8 hPa 3.7 m/s 9.1 mm
18:00 17.6° 1014.1 hPa 3.8 m/s 9.1 mm 17.6° 1014.1 hPa 3.8 m/s 9.1 mm
21:00 14.2° 1014.6 hPa 1.9 m/s 9.1 mm 14.2° 1014.6 hPa 1.9 m/s 9.1 mm
 05:17     22:02    Daglengte: 16:45 Donderdag 05 Aug
00:00 11.7° 1015.4 hPa 1.6 m/s 9.1 mm 11.7° 1015.4 hPa 1.6 m/s 9.1 mm
03:00 10.7° 1015.5 hPa 0.9 m/s 9.1 mm 10.7° 1015.5 hPa 0.9 m/s 9.1 mm
06:00 9.7° 1015.9 hPa 2.0 m/s 9.1 mm 9.7° 1015.9 hPa 2.0 m/s 9.1 mm
09:00 15.9° 1016.3 hPa 2.2 m/s 9.1 mm 15.9° 1016.3 hPa 2.2 m/s 9.1 mm
12:00 19.6° 1016.3 hPa 3.0 m/s 9.1 mm 19.6° 1016.3 hPa 3.0 m/s 9.1 mm
15:00 20.2° 1016.0 hPa 3.3 m/s 9.1 mm 20.2° 1016.0 hPa 3.3 m/s 9.1 mm
18:00 19.7° 1015.4 hPa 2.8 m/s 9.1 mm 19.7° 1015.4 hPa 2.8 m/s 9.1 mm
21:00 16.2° 1015.2 hPa 2.1 m/s 9.1 mm 16.2° 1015.2 hPa 2.1 m/s 9.1 mm
 05:20     21:59    Daglengte: 16:39 Vrijdag 06 Aug
00:00 12.9° 1015.4 hPa 2.4 m/s 9.1 mm 12.9° 1015.4 hPa 2.4 m/s 9.1 mm
03:00 11.9° 1015.0 hPa 2.8 m/s 9.1 mm 11.9° 1015.0 hPa 2.8 m/s 9.1 mm
06:00 11.0° 1014.9 hPa 3.0 m/s 9.1 mm 11.0° 1014.9 hPa 3.0 m/s 9.1 mm
09:00 17.2° 1013.8 hPa 3.5 m/s 9.1 mm 17.2° 1013.8 hPa 3.5 m/s 9.1 mm
12:00 22.2° 1012.6 hPa 5.2 m/s 9.1 mm 22.2° 1012.6 hPa 5.2 m/s 9.1 mm
15:00 23.8° 1010.8 hPa 4.8 m/s 9.1 mm 23.8° 1010.8 hPa 4.8 m/s 9.1 mm
18:00 23.5° 1009.7 hPa 4.1 m/s 9.1 mm 23.5° 1009.7 hPa 4.1 m/s 9.1 mm
21:00 19.1° 1009.5 hPa 3.1 m/s 9.1 mm 19.1° 1009.5 hPa 3.1 m/s 9.1 mm
 05:23     21:56    Daglengte: 16:33 Zaterdag 07 Aug
00:00 16.2° 1009.3 hPa 4.0 m/s 9.1 mm 16.2° 1009.3 hPa 4.0 m/s 9.1 mm
03:00 15.9° 1008.6 hPa 4.1 m/s 9.1 mm 15.9° 1008.6 hPa 4.1 m/s 9.1 mm
06:00 16.2° 1008.1 hPa 4.3 m/s 9.1 mm 16.2° 1008.1 hPa 4.3 m/s 9.1 mm
09:00 16.5° 1008.1 hPa 4.0 m/s 9.2 mm 16.5° 1008.1 hPa 4.0 m/s 9.2 mm
12:00 18.5° 1007.9 hPa 3.9 m/s 9.3 mm 18.5° 1007.9 hPa 3.9 m/s 9.3 mm
15:00 18.6° 1008.2 hPa 2.2 m/s 9.3 mm 18.6° 1008.2 hPa 2.2 m/s 9.3 mm
18:00 17.9° 1009.3 hPa 4.1 m/s 9.4 mm 17.9° 1009.3 hPa 4.1 m/s 9.4 mm
21:00 16.7° 1009.5 hPa 3.1 m/s 9.4 mm 16.7° 1009.5 hPa 3.1 m/s 9.4 mm
 05:25     21:53    Daglengte: 16:28 Zondag 08 Aug
00:00 14.2° 1010.0 hPa 2.3 m/s 9.4 mm 14.2° 1010.0 hPa 2.3 m/s 9.4 mm
03:00 14.9° 1010.0 hPa 2.3 m/s 9.4 mm 14.9° 1010.0 hPa 2.3 m/s 9.4 mm
09:00 17.5° 1009.5 hPa 3.8 m/s 9.5 mm 17.5° 1009.5 hPa 3.8 m/s 9.5 mm
15:00 19.7° 1010.1 hPa 2.6 m/s 14.0 mm 19.7° 1010.1 hPa 2.6 m/s 14.0 mm
21:00 17.8° 1010.4 hPa 2.8 m/s 17.6 mm 17.8° 1010.4 hPa 2.8 m/s 17.6 mm
 05:28     21:50    Daglengte: 16:22 Maandag 09 Aug
03:00 15.5° 1012.0 hPa 3.0 m/s 17.7 mm 15.5° 1012.0 hPa 3.0 m/s 17.7 mm
09:00 18.9° 1013.5 hPa 3.3 m/s 17.9 mm 18.9° 1013.5 hPa 3.3 m/s 17.9 mm
15:00 23.2° 1014.1 hPa 3.7 m/s 18.0 mm 23.2° 1014.1 hPa 3.7 m/s 18.0 mm
21:00 19.3° 1015.6 hPa 4.6 m/s 18.2 mm 19.3° 1015.6 hPa 4.6 m/s 18.2 mm
 05:30     21:47    Daglengte: 16:17 Dinsdag 10 Aug
03:00 17.2° 1016.3 hPa 2.6 m/s 18.2 mm 17.2° 1016.3 hPa 2.6 m/s 18.2 mm
09:00 18.6° 1015.3 hPa 3.0 m/s 18.2 mm 18.6° 1015.3 hPa 3.0 m/s 18.2 mm
15:00 21.2° 1015.1 hPa 3.1 m/s 18.7 mm 21.2° 1015.1 hPa 3.1 m/s 18.7 mm
21:00 17.0° 1013.2 hPa 0.5 m/s 0.9 mm
 05:33     21:44    Daglengte: 16:11 Woensdag 11 Aug
03:00 14.7° 1013.6 hPa 0.5 m/s 0.3 mm
09:00 16.6° 1013.7 hPa 0.6 m/s 0.3 mm
15:00 19.8° 1013.7 hPa 1.2 m/s 1.1 mm
21:00 17.1° 1013.5 hPa 0.8 m/s 0.7 mm
 05:36     21:41    Daglengte: 16:05 Donderdag 12 Aug
03:00 14.6° 1013.7 hPa 0.6 m/s 0.3 mm
09:00 16.5° 1013.8 hPa 0.7 m/s 0.5 mm
15:00 19.5° 1014.1 hPa 1.3 m/s 0.7 mm
21:00 17.0° 1014.3 hPa 0.9 m/s 0.9 mm
 05:38     21:38    Daglengte: 16:00 Vrijdag 13 Aug
03:00 14.6° 1014.6 hPa 0.6 m/s 0.5 mm
09:00 16.4° 1015.1 hPa 0.9 m/s 0.3 mm
15:00 19.8° 1015.2 hPa 1.8 m/s 0.7 mm
21:00 16.8° 1014.9 hPa 1.1 m/s 0.6 mm
 05:41     21:35    Daglengte: 15:54 Zaterdag 14 Aug
03:00 14.5° 1015.0 hPa 0.9 m/s 0.2 mm
09:00 16.3° 1014.5 hPa 0.6 m/s 0.4 mm
15:00 19.7° 1014.0 hPa 1.7 m/s 0.5 mm
21:00 16.9° 1013.1 hPa 0.5 m/s 0.5 mm
 05:44     21:32    Daglengte: 15:48 Zondag 15 Aug
03:00 14.2° 1012.6 hPa 0.4 m/s 0.2 mm
09:00 16.0° 1012.1 hPa 0.5 m/s 0.1 mm
15:00 19.8° 1011.7 hPa 1.4 m/s 0.3 mm
21:00 16.6° 1011.1 hPa 1.2 m/s 0.6 mm
FMI Hirlam - 7.5 km EWN WRFDA - 12 km DWD ICON - 7 km GFS - 25 km Basiskaart